Location: Ab? ar R?sh Ba?r?
(24.1861°N, 32.8847°E)
Time: 20:44:04
(UTC+00:00)

H-2A R/B - Pass Details

Date: 31 May 2022
Orbit: 576 x 652 km, 98.5° (Epoch: 03 July)

Event Time Altitude Azimuth Distance (km) Brightness Sun altitude
Rises 17:14:57 0° 25° (NNE) 2,799 5.5 -9.6°
Reaches altitude 10° 17:17:15 10° 34° (NE) 1,905 4.5 -10.0°
Maximum altitude 17:21:00 34° 100° (E) 980 2.6 -10.8°
Drops below altitude 10° 17:24:49 10° 166° (SSE) 1,933 4.2 -11.5°
Enters shadow 17:26:10 - 172° (S) 2,453 4.8 -11.8°
